Tracking 28125 objects as of 4-Oct-2023
HD Live streaming from Space Station
objects crossing your sky now

THORAD AGENA D DEB

Track THORAD AGENA D DEB now!
10-day predictions


NORAD ID: 19290
Int'l Code: 1970-025PV
Perigee: 1,030.8 km
Apogee: 1,069.2 km
Inclination: 99.8 °
Period: 106.0 minutes
Semi major axis: 7421 km
RCS: 0.0076 m2 (small)
Launch date: April 8, 1970
Source: United States (US)
Launch site: AIR FORCE WESTERN TEST RANGE (AFWTR)

Note: This is SATELLITE DEBRIS
Your satellite tracking list
Your tracking list is empty




NASA's NSSDC Master Catalog

Two Line Element Set (TLE):
1 19290U 70025PV  23276.59994733  .00000514  00000-0  77150-3 0  9997
2 19290  99.8046 208.3209 0025868 183.4212 353.3901 13.58024391904433
Source of the keplerian elements: AFSPC